Location: Bronnegerveen
(52.9548°N, 6.8388°E)
Time: 02:28:42
(UTC+00:00)

Meteor 1-27 - Pass Details

Date: 15 June 2025
Orbit: 838 x 890 km, 81.3° (Epoch: 06 July)

Event Time Altitude Azimuth Distance (km) Brightness Sun altitude
Rises 01:47:00 0° 347° (NNW) 3,499 8.2 -8.4°
Reaches altitude 10° 01:49:27 10° 348° (NNW) 2,561 7.5 -8.2°
Maximum altitude 01:55:19 80° 76° (ENE) 909 4.5 -7.7°
Drops below altitude 10° 02:01:09 10° 164° (SSE) 2,552 6.3 -7.2°
Sets 02:03:36 0° 166° (SSE) 3,486 7.0 -7.0°
